Location: *
(50.9167°S, 179.4000°W)
Time: 21:00:02
(UTC+00:00)

Cosmos 220 Rocket - Pass Details

Date: 03 March 2024
Orbit: 561 x 600 km, 74.0° (Epoch: 16 April)

Event Time Altitude Azimuth Distance (km) Brightness Sun altitude
Exits shadow 14:47:59 55° 34° (NE) 739 4.3 -23.3°
Maximum altitude 14:48:33 61° 70° (ENE) 700 4.3 -23.2°
Drops below altitude 10° 14:52:55 10° 150° (SSE) 1,980 7.7 -22.7°
Sets 14:55:11 0° 153° (SSE) 2,885 8.7 -22.5°
